"Pseudo-MPEC" for P115Hso

Created 2020 Sep 17 0:07:16 UT using Find_Orb

Click here for an explanation of pseudo-MPECs

 
 Astrometry: 
     P115Hso  C2020 09 12M8D$`]2yr.'w%j4+::K'!bYXAstrometryZ,Ys!MeF+Lbi^;aFB9F51
     P115Hso  C2020 09 12%f'0u6avRA.gMggCnei7+CPredacted;F^PBwVbY@iT0P+cK9PR[F51
     P115Hso  C2020 09 12=R$1meURb_xG6txF\Wf%fw0q:[dj4EafIL*pl:HTS!CNTi1eV6Q-F51
     P115Hso  C2020 09 12FG\gclickkpfR66Xu`J5c%BcZfl4U#Tem_r:b?P)dFo6_u1FyF/$F51
     P115Hso  C2020 09 12iL9U'du[PiAH]]B3f,35#IuR[uQ[^0$0IY)*xXfNG-v^jrq0%*E\F51
     P115Hso  C2020 09 12T@4i;eJSOORbG]`YI4'0e?77dpu/RO*fy,CS[rq4ZquQtc2*(R^@F51
     P115Hso ^C2020 09 13.59202102 39 11.947-05 59 37.25   ~9DLb 21.92GVNEOCP568
     P115Hso ^C2020 09 13.59296602 39 11.876-05 59 36.12   ~9DLb 21.78GVNEOCP568
     P115Hso ^C2020 09 13.59393402 39 11.803-05 59 34.90   ~9DLb 21.88GVNEOCP568
     P115Hso  C2020 09 16iH6dWina/fa;/:w'here1e)6kZ0TGn7yRWhTm,16MFghav\8XGWNF51
     P115Hso  C2020 09 16PmsdW'1K0WuR1C_wY9$YlAWN3iforukq%8jCJq/O6s-1r.eIh$M!F51
     P115Hso  C2020 09 16_sBG0_vUVUGFyqqbG-[.saZ'*I_1KexplanationD+G:,1y)f/84F51

Station data:
(568) Mauna Kea  (N19.826116 W155.472200)  US/Hawaii.
(F51) Pan-STARRS 1, Haleakala  (N20.707235 W156.255910)  US/Hawaii.
   Observers N. Primak, A. Schultz, S. Watters, J. Thiel, T. Goggia. Measurer
   PS1 Science Consortium. 1.8-m Ritchey-Chrétien + CCD.

Orbital elements:  P115Hso
   Perihelion 2020 Jul 6.672766 +/- 0.635 TT = 16:08:47 (JD 2459037.172766)
Epoch 2020 Sep 16.0 TT = JDT 2459108.5   Earth MOID: 0.6739   AutoNEOCP
M  17.43540861 +/- 0.36             (J2000 ecliptic)
n   0.24444251 +/- 0.00353          Peri.  300.84759 +/- 0.7
a   2.53328984 +/- 0.0244           Node    26.09727 +/- 0.046
e   0.3932774 +/- 0.004             Incl.   31.10759 +/- 0.33
P   4.03                   H 20.6   G  0.15   U  9.0  
q 1.53700397 +/- 0.00911    Q 3.52957572 +/- 0.0428
From 12 observations 2020 Sept. 12-16; mean residual 0".07
Residuals in arcseconds: 
200912 F51  .07+  .08+    200912 F51  .06-  .16+    200913 568  .02-  .01+    
200912 F51  .08-  .02-    200912 F51  .06+  .00     200916 F51  .13+  .02+    
200912 F51  .07+  .15-    200913 568  .01+  .00     200916 F51  .00   .08-    
200912 F51  .06-  .06-    200913 568  .00   .02-    200916 F51  .13-  .06+    

Ephemerides (geocentric):
Date (UTC) HH   RA              Dec         delta   r     elong  mag " sig PA
---- -- -- --  -------------   -----------  ------ ------ -----  --- ---- ---
2020 09 17 00  02 34 52.670   -04 48 42.21  .77918 1.6569 136.1 22.4 .181  56
2020 09 17 01  02 34 49.239   -04 47 49.18  .77901 1.6570 136.1 22.4 .198  55
2020 09 17 02  02 34 45.801   -04 46 56.12  .77885 1.6571 136.2 22.4 .216  55
2020 09 17 03  02 34 42.358   -04 46 03.04  .77868 1.6572 136.2 22.4 .234  54
2020 09 17 04  02 34 38.908   -04 45 09.94  .77852 1.6574 136.3 22.4 .253  54
2020 09 17 05  02 34 35.453   -04 44 16.80  .77835 1.6575 136.3 22.3 .272  53
2020 09 17 06  02 34 31.991   -04 43 23.64  .77819 1.6576 136.4 22.3 .291  53
2020 09 17 07  02 34 28.523   -04 42 30.46  .77803 1.6578 136.4 22.3 .310  52
2020 09 17 08  02 34 25.048   -04 41 37.25  .77786 1.6579 136.5 22.3 .330  52
2020 09 17 09  02 34 21.568   -04 40 44.02  .77770 1.6580 136.5 22.3 .350  52
2020 09 17 10  02 34 18.081   -04 39 50.76  .77754 1.6582 136.6 22.3 .370  52
2020 09 17 11  02 34 14.588   -04 38 57.47  .77737 1.6583 136.6 22.3 .391  51
2020 09 17 12  02 34 11.089   -04 38 04.16  .77721 1.6584 136.7 22.3 .411  51
2020 09 17 13  02 34 07.584   -04 37 10.82  .77705 1.6585 136.7 22.3 .433  51
2020 09 17 14  02 34 04.073   -04 36 17.46  .77689 1.6587 136.8 22.3 .454  51
2020 09 17 15  02 34 00.555   -04 35 24.07  .77673 1.6588 136.8 22.3 .476  51
2020 09 17 16  02 33 57.032   -04 34 30.65  .77657 1.6589 136.9 22.3 .498  50
2020 09 17 17  02 33 53.502   -04 33 37.22  .77641 1.6591 136.9 22.3 .520  50
2020 09 17 18  02 33 49.966   -04 32 43.75  .77625 1.6592 137.0 22.3 .543  50
2020 09 17 19  02 33 46.424   -04 31 50.26  .77609 1.6593 137.0 22.3 .566  50
2020 09 17 20  02 33 42.875   -04 30 56.74  .77593 1.6594 137.1 22.3 .589  50
2020 09 17 21  02 33 39.321   -04 30 03.20  .77577 1.6596 137.1 22.3 .613  50
2020 09 17 22  02 33 35.761   -04 29 09.63  .77561 1.6597 137.2 22.3 .637  49
2020 09 17 23  02 33 32.194   -04 28 16.04  .77545 1.6598 137.2 22.3 .661  49
2020 09 18 00  02 33 28.621   -04 27 22.42  .77529 1.6600 137.3 22.3 .685  49
2020 09 18 01  02 33 25.042   -04 26 28.77  .77513 1.6601 137.3 22.3 .710  49
2020 09 18 02  02 33 21.457   -04 25 35.10  .77497 1.6602 137.4 22.3 .735  49
2020 09 18 03  02 33 17.866   -04 24 41.41  .77482 1.6604 137.4 22.3 .760  49
2020 09 18 04  02 33 14.269   -04 23 47.69  .77466 1.6605 137.5 22.3 .786  49
2020 09 18 05  02 33 10.665   -04 22 53.94  .77450 1.6606 137.5 22.3 .812  49
2020 09 18 06  02 33 07.056   -04 22 00.17  .77435 1.6607 137.6 22.3 .838  49
2020 09 18 07  02 33 03.440   -04 21 06.37  .77419 1.6609 137.6 22.3 .864  49
2020 09 18 08  02 32 59.819   -04 20 12.55  .77403 1.6610 137.7 22.3 .891  48
2020 09 18 09  02 32 56.191   -04 19 18.70  .77388 1.6611 137.7 22.3 .918  48
2020 09 18 10  02 32 52.557   -04 18 24.83  .77372 1.6613 137.8 22.3 .945  48
2020 09 18 11  02 32 48.917   -04 17 30.93  .77357 1.6614 137.8 22.3 .973  48
2020 09 18 12  02 32 45.271   -04 16 37.00  .77341 1.6615 137.9 22.3 1.00  48
2020 09 18 13  02 32 41.619   -04 15 43.05  .77326 1.6617 137.9 22.3 1.03  48
2020 09 18 14  02 32 37.961   -04 14 49.08  .77310 1.6618 138.0 22.3 1.06  48
2020 09 18 15  02 32 34.297   -04 13 55.07  .77295 1.6619 138.0 22.3 1.09  48
2020 09 18 16  02 32 30.627   -04 13 01.05  .77280 1.6621 138.1 22.3 1.11  48
2020 09 18 17  02 32 26.950   -04 12 07.00  .77264 1.6622 138.2 22.3 1.14  48
2020 09 18 18  02 32 23.268   -04 11 12.92  .77249 1.6623 138.2 22.3 1.17  48
2020 09 18 19  02 32 19.579   -04 10 18.82  .77234 1.6624 138.3 22.3 1.20  48
2020 09 18 20  02 32 15.885   -04 09 24.69  .77219 1.6626 138.3 22.3 1.23  47
2020 09 18 21  02 32 12.184   -04 08 30.54  .77203 1.6627 138.4 22.3 1.26  47
2020 09 18 22  02 32 08.478   -04 07 36.36  .77188 1.6628 138.4 22.3 1.29  47
2020 09 18 23  02 32 04.765   -04 06 42.15  .77173 1.6630 138.5 22.3 1.33  47